Weather in Syabrenitsy

Russia / Novgorod Oblast     59°08′17″N   31°37′33″E
temp.,
°C
wind,
m/s
gust,
m/s
humid.,
%
clouds,
%
prec.,
mm/h
press.,
hPa
HPBL,
m
2 march, tue
tue200:00+2wnw4129278 0.0 1010710
03:00+1wnw5138988 0.0 1011693
06:000wnw4129260 0.0 1009463
09:000wnw4129173 0.0 1010561
12:00+2nw6108344 0.0 1011788
15:00+2nw6117872 0.0 10121140
18:00+1nw5127664 0.3 1014997
21:00−1nw4128661 0.6 1017776
3 march, wed
wed300:00−2wnw3109217 0.1 1017345
03:00−2wnw4129214 0.1 1017459
06:00−2wnw4129351 0.0 1016456
09:00−2w5118957 0.0 1016558
12:00+1w5108099 0.0 1014734
15:00+2w5117296 0.0 10111276
18:00+1w51282100 0.0 1008998
21:00+1wnw51197100 0.2 1005753
4 march, thu
thu400:000wnw41088100 0.6 1003784
03:00−2nw398393 0.7 1004487
06:00−4nw28872 0.0 1003323
09:00−4nw27831 0.0 1003392
12:00−2nnw24710 0.0 1003677
15:00−1nnw347031 0.0 1003914
18:00−4n367995 0.1 1003530
21:00−5nnw378597 0.1 1005571
5 march, fri
fri500:00−5nw379095 0.1 1005676
03:00−6nw368797 0.2 1007638
06:00−7nw369197 0.1 1007484
09:00−7nw358498 0.1 1009610
12:00−6nw3576100 0.1 1010744
15:00−5nw3572100 0.1 1012834
18:00−6nnw3584100 0.2 1013570
21:00−7n2583100 0.3 1015504
6 march, sat
sat600:00−8nw249074 0.0 1016191
03:00−8w259378 0.0 1016252
06:00−9w269535 0.0 1016215
09:00−8wsw378718 0.0 1015293
12:00−4sw47682 0.0 1013866
15:00−3sw6106646 0.0 10091270
18:00−4sw71589100 0.3 10031418
21:00−3sw71591100 1.7 9971208